Wind_Speed
44 44 45 45 46 46 46 46 46 45 46 46 46 46 46 45 45 44 44 44 45 45 45 46 45 45 45 44 44 44 44 46 46 46 47 48 48 48
43 43 44 45 45 46 46 46 46 46 46 46 46 46 46 45 44 44 44 44 44 45 46 46 46 46 46 45 45 45 45 46 46 47 47 47 48 48
42 42 43 44 45 45 45 46 45 45 45 45 45 45 44 44 43 44 44 44 45 45 46 46 46 46 46 46 46 45 45 46 47 47 47 46 46 46
41 42 43 44 44 44 45 45 45 45 44 44 44 44 44 44 44 44 44 44 44 45 45 46 46 46 46 46 46 46 45 46 47 47 47 47 46 45
41 42 42 42 43 43 44 44 44 44 44 44 43 43 43 43 42 42 43 43 44 44 44 45 46 47 46 46 46 46 46 46 46 46 47 46 45 44
40 40 40 41 41 42 43 43 43 43 43 43 42 42 42 42 42 42 42 42 43 43 43 45 46 46 46 46 46 46 46 45 45 46 46 45 44 43
39 39 39 39 40 41 41 42 42 42 41 41 41 40 40 41 41 41 41 41 41 42 43 44 45 45 45 45 45 44 45 45 45 45 44 43 42 42
39 39 39 40 40 40 40 40 40 39 39 39 39 39 40 40 41 41 41 41 41 41 42 43 43 43 44 44 44 44 44 44 43 43 42 41 40 40
39 40 39 39 39 39 39 38 38 38 38 37 38 38 39 39 39 39 40 40 40 41 41 41 41 42 42 43 43 43 42 42 41 40 40 39 38 38
39 39 39 39 39 39 38 37 37 37 37 37 37 37 38 37 37 38 38 39 39 40 40 40 40 41 41 41 41 40 40 40 39 39 38 38 38 38
38 38 38 38 37 37 36 36 36 36 36 36 36 36 36 36 36 37 37 38 38 38 39 39 39 38 38 38 38 38 38 38 38 38 37 37 37 37
37 37 36 36 36 36 36 36 35 35 36 36 36 36 36 36 36 36 37 37 38 38 38 37 37 37 36 36 36 37 37 37 37 36 35 35 35 36
36 35 35 35 35 35 35 35 35 35 35 36 36 36 36 36 36 36 37 38 38 37 37 36 36 36 35 34 34 35 36 36 36 35 34 34 35 35
35 34 34 35 35 35 35 35 35 36 35 35 35 34 35 35 36 37 37 38 37 36 36 35 34 34 34 33 33 33 34 35 35 34 33 33 33 33
34 34 34 34 34 34 34 35 35 35 35 34 34 34 35 35 36 36 36 35 35 35 35 34 33 33 32 32 31 31 32 32 32 32 31 30 30 30
33 33 32 32 32 33 34 34 34 34 34 33 33 33 34 34 33 33 33 33 33 33 32 32 31 31 30 30 30 29 29 29 29 28 28 27 27 27
32 32 32 31 31 31 31 32 32 31 31 31 31 31 31 31 31 31 32 31 31 30 30 30 29 28 28 28 28 27 27 27 27 26 25 25 26 25
32 31 30 30 29 29 29 29 29 29 29 29 29 29 29 29 29 29 29 29 28 28 28 28 27 27 27 27 26 26 26 26 26 25 24 24 24 24
30 29 28 28 28 27 27 27 27 28 28 28 27 27 27 27 27 27 27 27 26 26 26 26 26 27 26 25 24 25 25 25 24 23 23 23 23 23
28 27 27 27 27 27 26 26 26 26 26 25 25 24 24 25 25 25 25 24 25 25 25 25 25 25 24 24 24 24 24 23 22 21 21 21 21 20
26 26 26 26 26 26 25 25 25 25 24 24 23 23 24 24 24 24 23 23 24 24 24 24 24 24 24 24 23 23 23 22 21 20 20 20 19 17
24 24 24 23 24 24 24 23 23 23 23 22 22 23 23 23 22 22 22 22 22 22 23 23 23 23 23 23 21 20 19 20 20 19 18 17 16 14
22 21 21 21 21 21 21 21 21 21 21 21 21 21 22 22 21 21 21 21 21 21 21 20 20 21 21 20 18 17 18 18 17 16 15 14 14 14
Wind_Direction
270 271 271 271 270 271 272 273 273 274 274 275 275 276 276 275 275 276 276 276 276 277 278 280 280 280 281 283 283 284 284 285 286 288 287 287 286 286
271 272 272 271 271 272 273 273 274 275 275 276 276 276 276 275 274 275 275 276 277 277 278 279 279 279 280 282 283 284 284 285 287 288 288 288 287 286
272 272 272 272 271 272 273 274 275 276 276 277 276 276 275 275 275 275 275 276 277 277 278 279 280 280 281 281 282 283 284 286 287 288 288 288 288 287
272 273 272 271 272 273 273 274 275 275 276 276 276 276 275 275 275 275 275 276 277 277 278 279 280 280 280 281 282 283 284 286 287 287 288 288 288 287
272 273 273 273 274 274 274 275 275 276 276 276 275 275 274 275 275 275 276 276 277 279 280 281 281 281 281 282 283 283 284 286 287 287 288 288 287 286
273 273 273 274 274 275 276 276 275 274 275 275 275 274 274 274 275 275 276 277 279 280 281 281 281 282 281 282 283 284 285 285 286 288 288 288 287 285
273 274 274 275 276 277 277 276 274 273 274 275 274 274 274 274 275 276 277 278 279 281 282 282 282 282 283 283 284 284 285 286 287 287 288 288 287 285
272 274 274 276 278 278 278 275 273 273 274 274 274 275 275 275 275 276 277 278 280 281 282 283 283 283 283 284 283 284 285 286 286 287 288 289 287 285
272 273 274 276 277 277 277 275 272 272 274 275 275 277 277 276 276 277 278 279 282 283 283 283 284 285 284 284 284 285 286 286 287 288 288 287 287 286
273 274 275 276 277 276 275 273 272 272 273 275 276 277 278 276 277 278 278 280 283 285 285 285 286 286 285 285 286 286 286 287 288 289 287 286 286 286
275 275 276 276 276 276 273 272 272 273 274 276 276 277 278 277 277 278 279 281 283 284 286 287 288 287 286 286 286 287 288 288 289 289 287 286 286 286
274 276 276 275 274 274 273 273 273 274 274 275 275 276 277 277 278 279 281 281 284 285 287 288 289 288 287 286 287 287 288 289 290 289 287 287 287 287
275 276 276 275 274 273 272 273 275 275 274 275 275 275 277 278 279 280 282 283 285 286 288 288 289 290 289 288 287 287 288 289 290 289 288 288 288 288
275 275 275 274 274 273 273 274 274 274 274 274 275 275 277 278 279 281 283 283 285 287 289 290 289 290 290 289 288 288 288 288 290 289 289 290 289 289
275 275 275 274 274 274 274 274 274 274 274 275 276 277 278 278 279 281 282 283 286 288 289 290 290 290 290 290 289 288 289 290 291 291 291 290 289 290
275 275 275 275 274 274 274 274 275 275 275 275 275 277 279 279 279 281 282 284 287 289 289 290 291 290 290 291 291 290 291 292 293 292 292 289 288 290
275 275 275 274 275 275 276 276 277 276 276 276 276 278 279 278 279 281 283 284 286 289 290 290 290 291 291 292 291 291 292 294 295 293 291 290 290 290
275 274 274 275 275 276 277 278 278 277 277 276 277 278 277 278 279 281 284 285 286 288 289 289 290 292 292 291 290 290 292 294 295 291 289 289 291 292
274 274 274 276 277 277 278 279 279 279 278 277 277 277 277 278 279 281 284 286 287 289 290 290 291 292 291 291 292 292 293 294 295 291 290 290 293 293
274 273 275 277 277 277 278 279 280 279 278 276 276 276 278 279 280 282 285 286 288 289 291 292 292 293 293 293 294 294 295 295 294 291 290 292 294 294
274 274 275 276 276 276 277 278 278 277 276 275 276 276 278 280 282 284 284 285 287 288 290 291 292 292 293 294 294 293 294 294 295 292 292 293 293 291
274 274 275 275 276 276 276 276 276 275 274 274 275 277 279 282 283 283 282 283 286 287 289 290 292 294 295 295 294 293 294 296 297 296 295 294 292 290
272 273 274 275 276 277 277 276 274 273 272 272 275 277 280 281 282 283 284 285 286 288 289 291 294 297 297 296 294 295 297 297 296 294 294 294 293 295
Height
5648 5648 5649 5649 5650 5650 5651 5651 5652 5653 5653 5653 5652 5652 5651 5650 5650 5649 5648 5647 5647 5646 5645 5644 5642 5641 5640 5639 5637 5636 5634 5632 5629 5627 5624 5621 5618 5616
5636 5636 5637 5637 5638 5638 5638 5639 5639 5640 5641 5641 5640 5639 5639 5638 5638 5637 5636 5636 5635 5634 5633 5631 5630 5629 5628 5627 5625 5623 5621 5619 5617 5615 5612 5609 5606 5604
5624 5624 5625 5625 5625 5626 5626 5626 5627 5627 5627 5628 5627 5626 5626 5626 5625 5625 5624 5623 5622 5621 5620 5619 5618 5617 5615 5614 5613 5611 5609 5607 5605 5602 5599 5597 5594 5592
5613 5613 5613 5613 5613 5614 5614 5614 5614 5614 5615 5616 5615 5615 5614 5614 5613 5613 5612 5611 5610 5609 5608 5607 5605 5604 5603 5602 5600 5598 5597 5595 5592 5590 5588 5586 5583 5580
5602 5602 5602 5602 5602 5602 5602 5602 5602 5602 5603 5603 5603 5603 5602 5602 5602 5601 5600 5599 5598 5597 5596 5595 5593 5592 5591 5589 5588 5586 5584 5583 5581 5578 5575 5573 5570 5568
5591 5591 5591 5591 5591 5591 5590 5591 5591 5591 5591 5591 5591 5591 5590 5590 5590 5590 5589 5588 5587 5585 5584 5583 5581 5580 5578 5577 5576 5574 5572 5570 5568 5565 5563 5560 5558 5556
5580 5580 5580 5580 5580 5579 5579 5579 5579 5579 5579 5579 5579 5579 5579 5579 5579 5578 5578 5577 5576 5574 5573 5571 5570 5569 5567 5565 5563 5562 5560 5558 5556 5553 5551 5548 5546 5544
5570 5570 5570 5570 5570 5569 5568 5568 5568 5568 5568 5568 5568 5568 5568 5568 5567 5566 5566 5566 5566 5565 5563 5561 5558 5557 5555 5554 5552 5550 5548 5546 5544 5542 5539 5537 5535 5533
5560 5560 5560 5560 5559 5558 5558 5557 5557 5557 5558 5558 5557 5557 5557 5557 5556 5556 5555 5554 5553 5552 5551 5550 5548 5546 5544 5542 5540 5538 5537 5534 5532 5530 5528 5526 5524 5522
5550 5550 5550 5549 5549 5548 5548 5547 5547 5547 5548 5548 5548 5548 5546 5546 5545 5545 5544 5544 5543 5541 5539 5539 5537 5536 5533 5531 5529 5527 5525 5524 5522 5519 5517 5515 5513 5512
5540 5540 5539 5539 5539 5538 5538 5538 5538 5538 5537 5537 5537 5537 5536 5535 5535 5535 5534 5534 5533 5532 5529 5528 5527 5526 5524 5521 5518 5516 5515 5513 5511 5509 5507 5505 5503 5501
5530 5530 5529 5529 5528 5528 5528 5528 5528 5528 5528 5527 5527 5526 5526 5526 5525 5524 5524 5523 5522 5522 5520 5518 5516 5515 5515 5513 5509 5507 5505 5503 5501 5499 5496 5494 5492 5490
5521 5520 5519 5519 5519 5518 5518 5518 5518 5518 5518 5517 5517 5517 5517 5516 5516 5515 5514 5513 5512 5511 5509 5508 5506 5504 5503 5502 5501 5498 5495 5493 5491 5489 5486 5484 5482 5480
5511 5511 5510 5509 5509 5509 5508 5509 5508 5508 5508 5508 5508 5508 5507 5507 5506 5505 5504 5503 5502 5501 5499 5497 5496 5494 5493 5492 5490 5488 5486 5483 5482 5479 5477 5475 5472 5470
5502 5501 5500 5500 5499 5499 5499 5499 5499 5498 5498 5499 5499 5499 5498 5497 5497 5496 5494 5493 5492 5490 5489 5487 5486 5485 5483 5481 5480 5479 5477 5475 5472 5470 5468 5466 5463 5462
5492 5491 5491 5490 5490 5490 5489 5489 5489 5489 5489 5489 5489 5489 5488 5488 5487 5486 5485 5484 5483 5481 5479 5478 5477 5475 5474 5472 5471 5469 5467 5466 5464 5462 5460 5458 5456 5454
5483 5482 5482 5482 5481 5481 5481 5480 5480 5480 5479 5479 5479 5479 5479 5478 5477 5477 5476 5476 5475 5474 5472 5470 5468 5467 5465 5464 5463 5461 5460 5458 5456 5454 5453 5451 5449 5447
5474 5474 5474 5473 5473 5473 5472 5472 5471 5471 5471 5471 5471 5470 5470 5470 5469 5469 5468 5467 5467 5466 5464 5463 5462 5460 5459 5457 5456 5454 5452 5451 5449 5447 5445 5444 5443 5441
5466 5466 5465 5465 5465 5464 5464 5464 5463 5463 5463 5463 5463 5463 5462 5462 5462 5461 5461 5460 5459 5458 5457 5456 5455 5453 5453 5452 5450 5447 5445 5444 5442 5440 5439 5437 5436 5434
5458 5458 5458 5457 5457 5457 5456 5456 5456 5455 5455 5455 5455 5455 5455 5455 5455 5454 5454 5453 5452 5451 5450 5449 5448 5446 5445 5445 5443 5441 5438 5437 5436 5434 5433 5431 5430 5428
5450 5450 5450 5449 5449 5449 5449 5448 5448 5448 5448 5448 5448 5448 5448 5448 5448 5447 5447 5446 5446 5445 5444 5443 5441 5440 5439 5438 5437 5435 5432 5430 5429 5427 5426 5425 5424 5423
5442 5442 5442 5442 5442 5442 5442 5441 5441 5441 5442 5442 5442 5442 5442 5442 5441 5441 5441 5440 5439 5439 5438 5437 5435 5434 5433 5432 5430 5429 5427 5426 5423 5421 5420 5419 5419 5418
5435 5436 5436 5436 5435 5435 5435 5435 5435 5435 5435 5436 5436 5436 5435 5435 5435 5435 5434 5434 5433 5433 5432 5431 5430 5429 5427 5426 5424 5423 5422 5421 5419 5418 5416 5415 5414 5413